Location: B?dimalle
(17.1788°N, 80.5377°E)
Time: 22:23:23
(UTC+00:00)

Tiros 1 despin weight - Pass Details

Date: 08 November 2024
Orbit: 570 x 609 km, 48.2° (Epoch: 12 December)

Event Time Altitude Azimuth Distance (km) Brightness Sun altitude
Exits shadow 22:57:27 21° 12° (NNE) 1,337 ? -24.5°
Drops below altitude 10° 22:59:09 10° 25° (NNE) 1,921 ? -24.1°
Sets 23:01:32 0° 32° (NNE) 2,815 ? -23.5°
